Accueil
METAR-TAF:

METAR-TAF

Aéroports :

Arnhem, Pays-Bas

latitude: 52-04N, longitude: 005-53E, altitude: 48 m

Observation

Le bulletin a été fait il y a 23 minutes, à 15:25 UTC
Vent 7 kt de sud, variant entre est et ouest/sud-ouest
Température 18°C
Humidité 59%
Pression 1020 hPa
Visibilité 10 km ou plus
Quelques nuages à une hauteur de 3900 ft
Ciel couvert à une hauteur de 13000 ft

METAR: EHDL 281525Z AUTO 19007KT 100V240 9999 FEW039 OVC130 18/10 Q1020 BLU

Heure: 17:48 (15:48 UTC)


TAF: absent

Observations et prévisions météorologiques de plus de 4000 aéroports (messages METAR et TAF).

Les stations disponibles sont représentées par des disques jaunes et rouges sur la carte.

Passer la souris dessus pour voir le nom de la station.

Cliquer dessus pour voir les observations et prévisions météorologiques.

Pour changer de carte: cliquez sur les boutons verts avec une croix noire pour zoomer, sur le bouton vert avec un tiret pour effectuer un zoom arrière, ou sur les flèches vertes pour les cartes adjacentes.


METAR-TAF: